Hourly Data Report for October 12, 2013

All times are specified in Local Standard Time (LST). Add 1 hour to adjust for Daylight Saving Time where and when it is observed.

KUGAARUK CLIMATE
NUNAVUT

68°32'15.060" N
89°47'47.020" W
15.80 m
2303094
71407
NBB

Download Data

Hourly Data (October 2013)
Hourly Data Report for October 12, 2013
Temp Definition
°C
Dew Point Temp Definition
°C
Rel Hum Definition
%
Wind Dir Definition
10's deg

Wind Spd Definition
km/h
Visibility Definition
km
Stn Press Definition
kPa
Hmdx Definition


Wind Chill Definition


Weather Definition


TIME
00:00 2.4 -0.1 84 20 19   100.28     LegendNANA
01:00 2.2 -0.3 84 20 17   100.27     LegendNANA
02:00 2.1 -0.5 83 21 13   100.27     LegendNANA
03:00 1.2 -0.9 86 22 9   100.27     LegendNANA
04:00 0.5 -1.4 87 21 17   100.22     LegendNANA
05:00 1.1 -1.6 82 20 11   100.19     LegendNANA
06:00 0.6 -2.0 83 21 19   100.17     LegendNANA
07:00 1.1 -1.4 83 22 24   100.16     LegendNANA
08:00 0.8 -1.3 86 23 20   100.18     LegendNANA
09:00 0.8 -1.3 86 24 20   100.20     LegendNANA
10:00 1.3 -1.4 82 23 24   100.17     LegendNANA
11:00 1.2 -1.1 85 23 26   100.19     LegendNANA
12:00 1.3 -0.8 86 23 24   100.23     LegendNANA
13:00 1.0 -0.8 88 23 24   100.26     LegendNANA
14:00 1.1 -0.6 88 23 19   100.30     LegendNANA
15:00 0.7 -1.0 88 24 13   100.34     LegendNANA
16:00 0.0 -0.8 94 25 9   100.39   -3 LegendNANA
17:00 0.0 -1.8 88 25 13   100.45   -4 LegendNANA
18:00 -0.3 -1.5 92 25 13   100.45   -4 LegendNANA
19:00 -0.4 -1.5 92 26 15   100.45   -5 LegendNANA
20:00 -0.8 -2.6 88 26 19   100.49   -6 LegendNANA
21:00 -1.1 -3.0 87 27 17   100.52   -6 LegendNANA
22:00 -1.2 -2.9 88 26 13   100.55   -5 LegendNANA
23:00 -1.3 -2.9 89 26 13   100.56   -6 LegendNANA

Notes on Data Quality.

Legend

  • E = Estimated
  • M = Missing
  • NA = Not Available
  • ‡ = Partner data that is not subject to review by the National Climate Archives
Date modified: